Location: Detroit
(42.3310°N, 83.0460°W)
Time: 14:38:10
(UTC-05:00)

X-37B - Pass Details

Date: 06 December 2021
Orbit: 334 x 337 km, 45.0° (Epoch: 11 January)

Event Time Altitude Azimuth Distance (km) Brightness Sun altitude
Rises 17:57:41 0° 210° (SSW) 2,090 5.2 -10.5°
Reaches altitude 10° 18:00:05 10° 189° (S) 1,258 3.6 -10.9°
Maximum altitude 18:02:02 17° 145° (SE) 942 2.4 -11.2°
Enters shadow 18:03:20 13° 113° (ESE) 1,097 2.4 -11.5°
